Portada
METAR-TAF:

METAR-TAF

Aeropuertos :

Barquisimeto, Venezuela

Aeropuerto Internacional Jacinto Lara

latitud: 10-04N, longitud: 069-19W, altitud: 613 m

Observación

El informe se hizo hace 6 horas y 38 minutos, a las 17:00 UTC
Viento 11 kt del sureste
Temperatura 28°C
Humedad 55%
Presión 1015 hPa
Visibilidad 10 km o más
Escasas nubes a una altura de 1600 ft

METAR: SVBM 201700Z 14011KT 9999 FEW016 28/18 Q1015

Hora: 19:38 (23:38 UTC)


TAF: falta

Observaciones y pronósticos meteorológicos de más de 4000 aeropuertos (mensajes METAR y TAF).

Los puntos amarillos y rojos representan las estaciones disponibles.

Ponga el ratón en el punto deseado para ver el nombre de la estación.

Haga clic para ver las observaciones y los pronósticos meteorológicos.

Para cambiar el mapa : haga clic en los botones verdes con una cruz de color negro para hacer un zoom, en el botón verde con un guión para alejar o en las flechas verdes para mapas adyacentes.


METAR-TAF: